Regional Weather Roundup
Issued by NWS

Home | Current Version | Previous Version | Graphics & Text | Print | Product List | Glossary On
Versions: 1 2 3 4 5 6 7 8 9 10 11 12 13 14 15 16 17 18 19 20 21 22 23 24 25 26 27 28 29 30 31 32 33 34 35 36 37 38 39 40 41 42 43 44 45 46 47 48 49 50
000
ASUS43 KMPX 240401
RWRMN
WEATHER ROUNDUP FOR MINNESOTA
NATIONAL WEATHER SERVICE TWIN CITIES/CHANHASSEN MN
1100 PM CDT THU MAR 23 2017


NOTE: "FAIR" INDICATES FEW OR NO CLOUDS BELOW 12,000 FEET WITH NO
SIGNIFICANT WEATHER AND/OR OBSTRUCTIONS TO VISIBILITY. N/A MEANS
CURRENT SKY AND/OR WEATHER CONDITIONS ARE NOT AVAILABLE.

MNZ060>063-068>070-240500-
   Twin Cities Metro

CITY           SKY/WX    TMP DP  RH WIND       PRES   REMARKS
TWIN CITIES    LGT RAIN  39  36  89 E7        29.85S FOG
ST PAUL        LGT RAIN  38  38 100 E5        29.86F FOG
CRYSTAL        LGT RAIN  38  35  89 E5        29.84S FOG
BLAINE         DRIZZLE   39  39 100 E3        29.85S
LAKEVILLE      DRIZZLE   37  37 100 NE3       29.83S
EDEN PRAIRIE   LGT RAIN  39  36  89 E7        29.83S FOG
SOUTH ST PAUL  DRIZZLE   38  37  96 CALM      29.84F
LAKE ELMO      DRIZZLE   37  36  93 E3        29.86F
$$
MNZ001>005-007-008-013>017-022>024-027-028-240500-
   Northwest Minnesota

CITY           SKY/WX    TMP DP  RH WIND       PRES   REMARKS
BEMIDJI        CLOUDY    32  32 100 CALM      29.87R FOG
HALLOCK        CLOUDY    34  34 100 CALM      29.90R FOG
ROSEAU         CLOUDY    36  30  80 CALM      29.89R
WARROAD        CLOUDY    36  30  80 W3        29.89R
THIEF RVR FALL MIX PCPN N/A N/A N/A W5        29.90R
CROOKSTON      MIX PCPN  34  34 100 CALM      29.89S
FOSSTON        CLOUDY    32  30  93 CALM      29.88S FOG
DETROIT LAKES  CLOUDY    34  32  93 CALM      29.87R FOG
MOORHEAD       CLOUDY    34  34 100 NE3       29.88S FOG
PARK RAPIDS    CLOUDY    34  31  88 CALM      29.86R
MAHNOMEN       CLOUDY    32  32  99 CALM      29.87R FOG
$$
MNZ006-009>011-018-025>026-240500-
   North Central Minnesota

CITY           SKY/WX    TMP DP  RH WIND       PRES   REMARKS
BAUDETTE       CLOUDY    33  31  92 CALM      29.87R
FLAG ISLAND    CLOUDY    36  30  80 CALM      29.87S
INTL FALLS     CLOUDY    33  31  92 SW3       29.89R
WASKISH        CLOUDY    34  34 100 CALM      29.89R
BIG FORK       CLOUDY    34  32  93 CALM      29.87S FOG
LONGVILLE      MIX PCPN  32  32 100 CALM      29.87R
GRAND RAPIDS   CLOUDY   N/A N/A N/A CALM      29.88F HAZE
CRANE LAKE     CLOUDY    30  30 100 CALM      29.91R FOG
ORR            CLOUDY    32  30  93 CALM      29.86R
COOK           LGT SNOW  32  30  93 CALM      29.89S
WALKER         CLOUDY    32  32  99 CALM      29.87R FOG
$$
MNZ012-019>021-037-240500-
   Northeast Minnesota

CITY           SKY/WX    TMP DP  RH WIND       PRES   REMARKS
DULUTH         FRZ RAIN  32  31  96 E3        29.86F FOG
ELY            MIX PCPN  32  32 100 CALM      29.89R
HIBBING        FRZ RAIN  31  31 100 CALM      29.87R FOG
EVELETH        CLOUDY    32  31  95 SW3       29.88S FOG
DULUTH HARBOR  MIX PCPN  34  32  93 CALM      29.91S
TWO HARBORS    DRIZZLE   36  30  80 CALM      29.87S
SILVER BAY     RAIN      34  32  93 CALM      29.87S
GRAND MARAIS     N/A     33  32  96 CALM      29.92S
G MARAIS ARPRT MIX PCPN  28  25  86 S5        29.86F WCI  23
$$
MNZ029>031-032-039>041-046>048-054>057-064-240500-
   West Central Minnesota

CITY           SKY/WX    TMP DP  RH WIND       PRES   REMARKS
FERGUS FALLS   CLOUDY    34  34 100 E5        29.88S FOG     WCI  30
WHEATON        CLOUDY    36  34  93 NE3       29.85S FOG
MORRIS         CLOUDY    36  34  93 E7        29.83R FOG
ALEXANDRIA     CLOUDY    34  33  96 E7        29.84S FOG     WCI  28
ELBOW LAKE     CLOUDY    33  33 100 CALM      29.84S FOG
WADENA         CLOUDY    32  30  93 CALM      29.85R FOG
GLENWOOD       MIX PCPN  34  34 100 E6        29.84S WCI  29
APPLETON       CLOUDY    36  36 100 CALM      29.83R FOG
BENSON         DRIZZLE   37  34  87 SE6       29.85R
ORTONVILLE     CLOUDY    36  34  93 E8        29.81S FOG
MADISON        CLOUDY    37  37 100 E5        29.83R FOG
WILLMAR        DRIZZLE   37  37 100 NE5       29.84R
$$
MNZ033>034-036-042>043-049>051-058-059-240500-
   Central Minnesota

CITY           SKY/WX    TMP DP  RH WIND       PRES   REMARKS
ST CLOUD       LGT RAIN  35  35 100 E5        29.85R FOG     WCI  31
SAUK CENTRE    LGT RAIN  33  33  99 NE5       29.84S WCI  29
PAYNESVILLE    DRIZZLE   35  35 100 NE5       29.84S WCI  30
AITKIN         MIX PCPN  36  30  80 NE3       29.85R
PINE RIVER     CLOUDY    34  34 100 CALM      29.91R FOG
BRAINERD       CLOUDY    33  33 100 CALM      29.85R FOG
STAPLES        CLOUDY    32  32 100 CALM      29.85R FOG
LONG PRAIRIE   CLOUDY    32  32 100 NE3       29.84S FOG
LITTLE FALLS   MIX PCPN  32  32 100 E3        29.86S
LITCHFIELD     DRIZZLE   37  36  93 E6        29.83S
BUFFALO        DRIZZLE   36  35  95 NE3       29.86R
MAPLE LAKE     DRIZZLE   37  37  99 E3        29.86R
HUTCHINSON     HVY RAIN  37  37  99 E7        29.84R
$$
MNZ037-044-045-052-053-240500-
   East Central Minnesota

CITY           SKY/WX    TMP DP  RH WIND       PRES   REMARKS
PRINCETON      DRIZZLE   37  36  93 CALM      29.86S
MORA           CLOUDY    32  32 100 E3        29.88S FOG
CAMBRIDGE      DRIZZLE   37  32  81 CALM      29.85S
RUSH CITY      DRIZZLE   34  33  95 CALM      29.88R
MOOSE LAKE     CLOUDY    32  32 100 CALM      29.86R FOG
HINCKLEY       CLOUDY    34  34 100 CALM      29.88R FOG
CLOQUET        MIX PCPN  32  30  93 CALM      29.87S
MCGREGOR       CLOUDY    32  32 100 CALM      29.87S
$$
MNZ071>073-080-081-089-090-097-098-240500-
   Southwest Minnesota

CITY           SKY/WX    TMP DP  RH WIND       PRES   REMARKS
MONTEVIDEO     DRIZZLE   36  36 100 E6        29.84R
GRANITE FALLS  CLOUDY    38  37  95 NE5       29.82R FOG
CANBY          CLOUDY    37  36  99 CALM      29.83R FOG
MARSHALL       CLOUDY    37  36  96 SE7       29.80R
REDWOOD FALLS  LGT RAIN  38  35  89 E9        29.79S FOG
OLIVIA         CLOUDY    36  34  93 E9        29.80R FOG
PIPESTONE      CLOUDY    39  36  87 E7        29.76R
WINDOM         CLOUDY    41  36  81 NE5       29.77R
WORTHINGTON    CLOUDY    39  36  89 N7        29.75R
JACKSON        CLOUDY    37  36  93 E6        29.75R
TRACY          CLOUDY    37  37  97 NE5       29.79R FOG
SLAYTON        CLOUDY    37  36  96 N6        29.79R
$$
MNZ065>067-074>077-082>085-091>093-240500-
   South Central Minnesota

CITY           SKY/WX    TMP DP  RH WIND       PRES   REMARKS
MANKATO        CLOUDY    40  37  89 SE8       29.81R
NEW ULM        CLOUDY    39  36  87 NE5       29.81R
ST JAMES       CLOUDY    39  37  93 CALM      29.79R
FAIRMONT       CLOUDY    41  37  86 SE12      29.76S
GLENCOE        DRIZZLE   38  38 100 CALM      29.83R
FARIBAULT      CLOUDY    41  37  87 SE6       29.82S
OWATONNA       CLOUDY    39  36  87 SE10      29.80S
WASECA         CLOUDY    39  36  87 SE9       29.80S
ALBERT LEA     CLOUDY    39  37  93 SE18G24   29.79S
$$
MNZ078>079-086>088-094>096-240500-
   Southeast Minnesota

CITY           SKY/WX    TMP DP  RH WIND       PRES   REMARKS
ROCHESTER      CLOUDY    37  36  96 SE15      29.82F
RED WING       CLOUDY    41  34  75 SE7       29.85R
STANTON        DRIZZLE   40  36  88 E5        29.82R
DODGE CENTER   MOCLDY    37  36  93 SE14      29.80F
WINONA         CLOUDY    41  34  75 SE8       29.88R
AUSTIN         CLOUDY    39  36  87 SE7       29.82S
PRESTON        CLOUDY    36  34  93 SE7       29.86F
$$
ABBREVIATIONS USED IN REMARKS
   TC - TEMPERATURES IN CELSIUS
  WCI - WIND CHILL INDEX
   HX - HEAT INDEX
  VSB - VISIBILITY
$$



USA.gov is the U.S. government's official web portal to all federal, state and local government web resources and services.